�N����,����,�~����,�C��,���x,�C��,����,���ϕ���,�ő�u�ԕ���,�ő厞����,���˗�,�I�_���x,�n�����x,�ő啗���N��,DTYPE
"19/01/02","00:10",0.0,5.5,81.6,1017.3,287.7,2.2,3.5,308.4,0.00,2.6,7.1,"00:01:36",1
"19/01/02","00:20",0.0,5.3,81.4,1017.8,286.7,2.0,2.9,306.4,0.00,2.4,7.1,"00:16:48",1
"19/01/02","00:30",0.0,5.2,81.9,1017.8,294.5,2.0,4.8,327.8,0.00,2.4,7.0,"00:26:00",1
"19/01/02","00:40",0.0,5.0,82.5,1017.3,311.7,2.1,2.9,329.9,0.00,2.3,6.9,"00:34:16",1
"19/01/02","00:50",0.0,4.7,83.1,1017.1,268.0,1.7,2.5,312.3,0.00,2.1,6.7,"00:49:28",1
"19/01/02","01:00",0.0,4.0,82.6,1017.1,287.8,0.8,1.6,298.7,0.00,1.4,6.8,"00:50:32",1
"19/01/02","01:10",0.0,3.4,85.2,1017.5,294.0,1.2,2.7,338.9,0.00,1.2,6.8,"01:02:24",1
"19/01/02","01:20",0.0,3.1,87.5,1017.5,301.0,1.6,2.6,319.4,0.00,1.3,6.8,"01:16:16",1
"19/01/02","01:30",0.0,2.9,87.0,1017.8,284.8,1.2,2.1,321.6,0.00,1.0,6.5,"01:23:44",1
"19/01/02","01:40",0.0,2.5,89.0,1017.5,292.5,2.0,3.1,302.3,0.00,0.9,6.6,"01:36:00",1
"19/01/02","01:50",0.0,2.2,89.5,1018.0,304.8,2.1,3.1,330.4,0.00,0.7,6.5,"01:46:00",1
"19/01/02","02:00",0.0,2.0,90.9,1017.8,314.3,2.0,2.8,327.8,0.00,0.7,6.4,"01:51:20",1
"19/01/02","02:10",0.0,1.7,91.0,1017.8,303.5,1.5,2.4,313.1,0.00,0.4,6.2,"02:01:44",1
"19/01/02","02:20",0.0,1.7,93.4,1017.8,294.3,1.2,2.4,312.6,0.00,0.8,6.2,"02:17:12",1
"19/01/02","02:30",0.0,2.4,92.8,1017.8,296.8,2.2,3.1,319.1,0.00,1.4,6.3,"02:22:24",1
"19/01/02","02:40",0.0,3.0,92.6,1017.8,285.8,2.1,3.3,307.6,0.00,2.0,6.2,"02:31:36",1
"19/01/02","02:50",0.0,3.0,92.3,1017.8,277.9,1.7,2.0,276.4,0.00,1.9,6.2,"02:41:36",1
"19/01/02","03:00",0.0,2.6,91.2,1017.5,287.7,2.1,3.7,320.5,0.00,1.4,6.0,"02:59:44",1
"19/01/02","03:10",0.0,2.0,92.4,1017.5,310.0,2.2,3.4,320.3,0.00,0.9,6.2,"03:05:12",1
"19/01/02","03:20",0.0,2.2,92.9,1017.5,295.3,2.2,3.5,327.0,0.00,1.2,5.9,"03:19:04",1
"19/01/02","03:30",0.0,2.2,93.9,1017.5,315.5,2.0,3.1,311.2,0.00,1.4,6.1,"03:22:00",1
"19/01/02","03:40",0.0,1.9,92.9,1017.5,259.6,0.6,2.1,314.2,0.00,0.9,5.8,"03:30:40",1
"19/01/02","03:50",0.0,1.4,93.0,1017.5,263.9,0.3,2.0,292.4,0.00,0.4,5.7,"03:49:44",1
"19/01/02","04:00",0.0,1.3,93.1,1017.8,319.7,1.3,3.4,329.4,0.00,0.3,5.9,"03:58:32",1
"19/01/02","04:10",0.0,1.0,93.8,1017.5,300.2,1.5,2.4,340.2,0.00,0.2,5.7,"04:00:48",1
"19/01/02","04:20",0.0,1.0,94.4,1017.3,297.2,0.7,1.8,329.3,0.00,0.2,5.7,"04:13:12",1
"19/01/02","04:30",0.0,1.7,95.2,1017.3,277.5,0.6,1.9,325.8,0.00,1.1,5.6,"04:26:40",1
"19/01/02","04:40",0.0,1.6,94.7,1017.1,280.1,1.6,3.3,324.2,0.00,0.9,5.8,"04:39:20",1
"19/01/02","04:50",0.0,1.3,94.3,1017.1,281.9,1.1,2.8,316.6,0.00,0.5,5.7,"04:40:08",1
"19/01/02","05:00",0.0,1.4,95.4,1016.8,283.5,0.6,1.3,307.1,0.00,0.8,5.6,"04:50:08",1
"19/01/02","05:10",0.0,1.5,94.5,1016.8,257.6,0.8,3.5,313.7,0.00,0.8,5.6,"05:09:52",1
"19/01/02","05:20",0.0,1.7,94.9,1017.3,314.8,1.3,3.4,312.1,0.00,1.0,5.3,"05:17:12",1
"19/01/02","05:30",0.0,1.4,95.1,1017.1,247.6,1.0,2.5,315.5,0.00,0.7,5.7,"05:27:36",1
"19/01/02","05:40",0.0,1.4,95.1,1017.3,298.4,1.8,3.3,308.8,0.00,0.7,5.5,"05:34:00",1
"19/01/02","05:50",0.0,1.2,94.3,1017.5,309.7,1.7,3.1,304.4,0.00,0.4,5.6,"05:43:28",1
"19/01/02","06:00",0.0,1.7,95.1,1017.5,268.4,1.7,3.3,248.0,0.00,1.0,5.3,"05:59:28",1
"19/01/02","06:10",0.0,1.8,93.8,1017.8,268.8,1.5,2.9,318.2,0.00,0.9,5.6,"06:05:36",1
"19/01/02","06:20",0.0,2.1,94.7,1017.8,249.9,1.2,3.3,235.6,0.00,1.4,5.4,"06:19:36",1
"19/01/02","06:30",0.0,2.0,92.6,1018.0,284.9,2.0,3.4,319.6,0.00,1.0,5.2,"06:27:20",1
"19/01/02","06:40",0.0,2.4,92.4,1018.0,233.9,1.5,3.3,233.0,0.00,1.3,5.4,"06:32:48",1
"19/01/02","06:50",0.0,2.6,91.0,1018.5,220.2,1.5,3.7,204.4,0.00,1.3,5.4,"06:45:28",1
"19/01/02","07:00",0.0,2.1,89.2,1018.2,296.8,1.5,3.6,329.5,0.00,0.6,5.4,"06:52:48",1
"19/01/02","07:10",0.0,2.5,90.3,1018.5,228.3,1.2,2.9,207.8,0.00,1.1,5.5,"07:04:08",1
"19/01/02","07:20",0.0,2.5,89.0,1018.7,267.4,1.6,3.5,326.3,0.00,0.9,5.3,"07:17:52",1
"19/01/02","07:30",0.0,2.3,88.9,1019.0,284.2,1.5,2.7,333.8,0.00,0.7,5.5,"07:20:08",1
"19/01/02","07:40",0.0,2.3,89.8,1019.0,267.1,1.3,3.3,320.3,0.00,0.8,5.4,"07:31:12",1
"19/01/02","07:50",0.0,2.4,89.0,1019.2,303.6,2.2,3.6,336.6,0.00,0.8,5.3,"07:49:44",1
"19/01/02","08:00",0.0,3.1,89.8,1019.4,255.1,1.8,3.4,231.5,0.00,1.6,5.6,"07:56:40",1
"19/01/02","08:10",0.0,3.7,88.2,1019.7,262.9,1.8,2.9,245.4,0.00,2.0,5.6,"08:01:36",1
"19/01/02","08:20",0.0,3.4,87.9,1019.7,271.6,1.7,3.7,312.3,0.01,1.6,5.5,"08:10:40",1
"19/01/02","08:30",0.0,4.4,85.7,1020.4,246.3,2.1,3.6,239.0,0.03,2.3,5.6,"08:28:56",1
"19/01/02","08:40",0.0,4.7,83.1,1020.8,273.7,2.5,5.4,299.7,0.05,2.1,5.6,"08:39:04",1
"19/01/02","08:50",0.0,4.9,82.7,1021.1,283.7,3.7,9.3,337.8,0.10,2.2,5.6,"08:42:28",1
"19/01/02","09:00",0.0,5.4,82.7,1021.3,274.1,2.6,4.8,338.3,0.16,2.7,6.0,"08:54:58",1
"19/01/02","09:10",0.0,5.4,81.5,1021.5,277.1,3.1,5.9,319.5,0.17,2.5,5.7,"09:09:34",1
"19/01/02","09:20",0.0,5.6,81.2,1021.5,274.4,3.4,5.0,286.5,0.18,2.7,6.0,"09:11:28",1
"19/01/02","09:30",0.0,5.8,80.0,1021.8,288.5,3.7,5.0,266.7,0.19,2.7,6.3,"09:26:12",1
"19/01/02","09:40",0.0,5.9,78.8,1022.3,287.1,3.7,6.5,309.9,0.22,2.5,6.3,"09:39:14",1
"19/01/02","09:50",0.0,6.4,78.4,1021.8,297.6,3.7,5.9,336.5,0.21,3.0,6.5,"09:44:08",1
"19/01/02","10:00",0.0,5.6,78.6,1021.8,286.1,3.6,6.5,315.4,0.15,2.2,6.6,"09:55:22",1
"19/01/02","10:10",0.0,5.3,78.9,1021.8,292.4,3.7,5.8,316.0,0.04,2.0,6.6,"10:03:04",1
"19/01/02","10:20",0.0,5.3,80.2,1021.1,288.4,3.9,8.8,317.9,0.07,2.2,6.7,"10:18:48",1
"19/01/02","10:30",0.0,6.5,78.1,1021.3,291.9,3.7,6.8,315.8,0.33,3.0,6.9,"10:21:40",1
"19/01/02","10:40",0.0,7.0,76.9,1021.1,290.6,3.5,5.9,310.8,0.33,3.3,6.9,"10:32:50",1
"19/01/02","10:50",0.0,6.9,74.1,1021.1,298.6,3.9,8.8,337.8,0.36,2.7,7.3,"10:44:20",1
"19/01/02","11:00",0.0,7.3,72.9,1021.1,293.9,4.2,7.1,338.7,0.41,2.8,7.3,"10:52:14",1
"19/01/02","11:10",0.0,7.2,72.8,1020.8,285.7,4.0,7.2,310.0,0.44,2.7,7.3,"11:04:44",1
"19/01/02","11:20",0.0,7.5,71.6,1021.1,294.5,4.1,7.0,307.1,0.45,2.7,7.5,"11:12:48",1
"19/01/02","11:30",0.0,7.8,71.6,1020.4,282.1,3.2,5.6,298.4,0.46,3.0,7.8,"11:20:24",1
"19/01/02","11:40",0.0,7.6,72.0,1020.4,283.2,3.7,6.5,309.2,0.40,2.9,8.0,"11:30:24",1
"19/01/02","11:50",0.0,7.9,71.6,1020.1,290.4,3.6,6.7,314.4,0.43,3.1,8.2,"11:41:44",1
"19/01/02","12:00",0.0,8.2,72.9,1020.4,297.1,3.9,8.0,346.9,0.43,3.7,8.4,"11:53:36",1
"19/01/02","12:10",0.0,8.1,68.7,1019.9,288.5,3.6,7.0,291.3,0.44,2.7,8.5,"12:05:46",1
"19/01/02","12:20",0.0,7.6,71.4,1019.9,332.2,4.6,7.0,344.4,0.22,2.8,8.7,"12:18:48",1
"19/01/02","12:30",0.0,8.0,71.5,1019.7,329.8,4.2,6.5,323.3,0.35,3.2,8.9,"12:27:38",1
"19/01/02","12:40",0.0,8.1,68.8,1019.4,327.7,3.5,7.0,328.1,0.31,2.8,8.9,"12:35:28",1
"19/01/02","12:50",0.0,9.2,67.4,1019.4,304.6,3.1,6.6,331.4,0.49,3.5,9.0,"12:40:40",1
"19/01/02","13:00",0.0,7.7,67.9,1019.4,320.3,3.6,6.3,343.5,0.23,2.2,9.2,"12:51:12",1
"19/01/02","13:10",0.0,7.8,69.3,1019.4,318.8,2.8,4.9,324.4,0.20,2.6,9.3,"13:04:40",1
"19/01/02","13:20",0.0,7.8,69.1,1019.0,344.9,2.0,3.9,14.1,0.11,2.5,9.2,"13:10:34",1
"19/01/02","13:30",0.0,7.3,71.1,1019.0,354.4,1.6,3.3,332.3,0.10,2.5,9.4,"13:27:52",1
"19/01/02","13:40",0.0,7.7,69.6,1018.7,343.6,1.8,3.1,315.1,0.13,2.5,9.4,"13:38:00",1
"19/01/02","13:50",0.0,7.9,68.0,1019.0,349.9,2.2,6.6,335.4,0.08,2.4,9.2,"13:49:04",1
"19/01/02","14:00",0.0,7.6,67.7,1018.7,350.4,2.2,5.2,9.4,0.09,2.1,9.2,"13:52:16",1
"19/01/02","14:10",0.0,7.8,67.4,1018.5,332.2,2.8,6.4,348.4,0.10,2.2,9.1,"14:08:24",1
"19/01/02","14:20",0.0,8.5,64.1,1018.7,322.4,3.5,5.9,346.8,0.20,2.1,9.1,"14:19:28",1
"19/01/02","14:30",0.0,8.2,62.8,1019.0,335.9,2.2,4.3,334.0,0.07,1.6,9.3,"14:26:24",1
"19/01/02","14:40",0.0,7.9,63.9,1019.0,288.5,2.1,4.8,345.1,0.12,1.5,9.4,"14:34:00",1
"19/01/02","14:50",0.0,8.0,64.5,1019.2,299.4,3.0,4.5,316.3,0.10,1.8,9.2,"14:41:20",1
"19/01/02","15:00",0.0,8.1,65.9,1018.7,330.4,4.1,6.8,322.6,0.12,2.2,9.1,"14:54:56",1
"19/01/02","15:10",0.0,8.3,64.9,1019.0,337.4,3.4,5.9,313.2,0.20,2.1,9.4,"15:07:44",1
"19/01/02","15:20",0.0,8.7,63.1,1019.2,292.2,2.0,5.0,324.8,0.24,2.1,9.3,"15:19:52",1
"19/01/02","15:30",0.0,7.5,71.2,1019.7,340.1,3.9,6.8,337.2,0.23,2.7,9.4,"15:28:50",1
"19/01/02","15:40",0.0,6.7,74.7,1019.4,355.3,2.7,6.3,340.3,0.09,2.6,9.4,"15:30:32",1
"19/01/02","15:50",0.0,6.8,75.1,1019.2,0.9,2.0,5.5,347.4,0.04,2.7,9.1,"15:40:48",1
"19/01/02","16:00",0.0,6.7,75.8,1019.2,344.7,2.0,4.9,339.5,0.04,2.8,9.3,"15:50:48",1
"19/01/02","16:10",0.0,6.7,75.6,1019.4,334.2,2.1,4.8,337.5,0.03,2.7,9.1,"16:02:40",1
"19/01/02","16:20",0.0,6.9,74.3,1019.7,331.1,2.8,5.0,341.4,0.04,2.7,9.1,"16:11:52",1
"19/01/02","16:30",0.0,6.7,73.8,1019.7,311.5,1.6,2.6,330.3,0.01,2.4,8.9,"16:20:16",1
"19/01/02","16:40",0.0,6.6,73.8,1019.7,313.2,2.3,3.9,316.9,0.02,2.3,8.9,"16:31:04",1
"19/01/02","16:50",0.0,6.2,74.0,1019.7,299.4,2.2,4.8,319.0,0.00,2.0,8.8,"16:42:48",1
"19/01/02","17:00",0.0,5.9,75.7,1019.2,322.9,1.7,2.9,334.5,0.00,2.0,8.8,"16:50:48",1
"19/01/02","17:10",0.0,5.6,77.1,1019.4,328.5,1.5,2.8,329.1,0.00,1.9,8.7,"17:06:08",1
"19/01/02","17:20",0.0,5.4,77.7,1019.7,328.3,1.7,4.0,334.6,0.00,1.9,8.6,"17:10:40",1
"19/01/02","17:30",0.0,5.0,78.6,1019.7,22.9,1.0,2.5,332.2,0.00,1.6,8.4,"17:28:48",1
"19/01/02","17:40",0.0,4.6,79.1,1019.7,303.8,1.6,2.9,322.4,0.00,1.3,8.4,"17:37:44",1
"19/01/02","17:50",0.0,4.5,80.5,1019.7,274.2,1.1,2.1,309.1,0.00,1.5,8.1,"17:46:08",1
"19/01/02","18:00",0.0,4.2,81.5,1019.2,267.9,1.3,4.4,334.6,0.00,1.4,8.1,"17:51:20",1
"19/01/02","18:10",0.0,4.3,81.3,1019.4,196.0,0.7,1.9,198.2,0.00,1.4,8.2,"18:02:08",1
"19/01/02","18:20",0.0,4.3,82.2,1019.0,230.9,0.8,1.4,206.8,0.00,1.6,8.0,"18:10:48",1
"19/01/02","18:30",0.0,4.3,81.8,1019.7,355.4,1.5,3.6,342.9,0.00,1.5,7.9,"18:27:36",1
"19/01/02","18:40",0.0,4.2,83.2,1019.9,317.7,1.8,3.9,334.1,0.00,1.6,8.0,"18:32:32",1
"19/01/02","18:50",0.0,4.3,83.5,1019.9,270.4,1.6,4.2,336.7,0.00,1.8,7.9,"18:49:14",1
"19/01/02","19:00",0.0,4.6,82.7,1019.9,287.5,2.1,4.9,323.6,0.00,2.0,7.7,"18:52:56",1
"19/01/02","19:10",0.0,4.5,82.5,1019.9,259.7,0.5,2.1,317.1,0.00,1.8,7.5,"19:01:04",1
"19/01/02","19:20",0.0,4.3,81.9,1019.9,292.6,0.7,1.9,308.0,0.00,1.5,7.4,"19:16:48",1
"19/01/02","19:30",0.0,3.9,82.1,1019.7,313.7,1.1,4.3,331.9,0.00,1.2,7.5,"19:29:52",1
"19/01/02","19:40",0.0,3.4,83.8,1019.7,304.0,1.2,3.2,331.2,0.00,1.0,7.1,"19:30:16",1
"19/01/02","19:50",0.0,2.9,85.3,1019.7,313.2,2.3,3.3,325.4,0.00,0.7,7.2,"19:44:54",1
"19/01/02","20:00",0.0,2.9,87.1,1019.7,315.6,1.6,2.2,317.7,0.00,1.0,7.2,"19:52:56",1
"19/01/02","20:10",0.0,2.8,88.1,1019.4,306.3,1.6,2.5,308.8,0.00,1.1,7.0,"20:06:08",1
"19/01/02","20:20",0.0,2.9,88.7,1019.4,313.0,2.0,2.6,312.7,0.00,1.3,7.1,"20:10:40",1
"19/01/02","20:30",0.0,2.6,88.9,1019.7,312.9,2.0,3.2,326.6,0.00,1.0,7.1,"20:27:38",1
"19/01/02","20:40",0.0,2.4,89.7,1019.4,299.5,1.8,2.9,319.3,0.00,0.9,7.0,"20:30:18",1
"19/01/02","20:50",0.0,2.3,90.7,1019.4,308.7,2.2,2.9,314.0,0.00,1.0,6.7,"20:40:16",1
"19/01/02","21:00",0.0,2.1,91.1,1019.4,317.5,1.8,3.6,304.9,0.00,0.8,6.9,"20:52:32",1
"19/01/02","21:10",0.0,2.0,91.7,1019.2,293.6,1.7,3.1,317.3,0.00,0.8,6.8,"21:08:48",1
"19/01/02","21:20",0.0,1.9,91.9,1019.0,309.6,1.7,2.6,320.2,0.00,0.8,6.8,"21:13:28",1
"19/01/02","21:30",0.0,1.5,91.9,1019.2,304.9,1.5,2.2,329.4,0.00,0.4,6.7,"21:23:44",1
"19/01/02","21:40",0.0,1.4,93.2,1019.2,288.6,1.2,2.0,329.9,0.00,0.5,6.7,"21:38:00",1
"19/01/02","21:50",0.0,1.3,92.7,1019.2,321.4,1.8,3.2,322.2,0.00,0.3,6.4,"21:46:16",1
"19/01/02","22:00",0.0,1.2,93.9,1019.0,307.8,1.5,2.1,338.9,0.00,0.4,6.6,"21:52:16",1
"19/01/02","22:10",0.0,1.1,94.6,1019.2,310.3,1.8,2.9,320.0,0.00,0.4,6.3,"22:03:20",1
"19/01/02","22:20",0.0,1.1,94.8,1019.2,300.5,1.2,2.0,331.6,0.00,0.4,6.3,"22:12:40",1
"19/01/02","22:30",0.0,1.0,94.9,1019.0,295.4,1.2,2.4,322.3,0.00,0.3,6.4,"22:23:28",1
"19/01/02","22:40",0.0,1.2,95.9,1019.0,306.9,1.1,1.7,320.8,0.00,0.7,6.5,"22:36:48",1
"19/01/02","22:50",0.0,1.2,94.6,1019.0,322.4,1.6,3.1,324.0,0.00,0.5,6.2,"22:45:12",1
"19/01/02","23:00",0.0,1.0,95.8,1019.2,300.7,1.5,2.1,319.3,0.00,0.4,6.3,"22:53:36",1
"19/01/02","23:10",0.0,1.1,96.2,1019.2,302.7,1.7,2.6,303.9,0.00,0.6,6.2,"23:08:40",1
"19/01/02","23:20",0.0,1.2,96.4,1019.2,318.1,1.7,2.7,332.9,0.00,0.7,6.1,"23:18:24",1
"19/01/02","23:30",0.0,0.9,96.1,1019.2,324.2,1.8,2.9,309.9,0.00,0.4,6.2,"23:28:16",1
"19/01/02","23:40",0.0,0.8,96.3,1019.4,323.4,1.3,2.8,325.6,0.00,0.3,6.2,"23:38:48",1
"19/01/02","23:50",0.0,0.9,95.8,1019.2,333.3,1.2,2.1,316.8,0.00,0.3,6.1,"23:43:36",1
"19/01/02","24:00",0.0,0.4,96.7,1019.2,286.0,1.0,1.8,324.0,0.00,0.0,6.1,"23:59:44",1
